TimeMST,TemperatureF,Dew PointF,Humidity,Sea Level PressureIn,VisibilityMPH,Wind Direction,Wind SpeedMPH,Gust SpeedMPH,PrecipitationIn,Events,Conditions,WindDirDegrees,DateUTC
12:15 AM,5.0,1.4,85,29.99,10.0,WNW,4.6,-,N/A,,Overcast,290,2013-01-13 07:15:00
12:53 AM,7.0,-0.0,73,30.24,10.0,NW,6.9,-,N/A,,Overcast,320,2013-01-13 07:53:00
1:17 AM,6.8,1.4,79,30.00,10.0,NNW,6.9,-,N/A,,Overcast,330,2013-01-13 08:17:00
1:49 AM,6.8,3.2,85,30.00,2.5,NNW,4.6,-,0.00,Snow,Light Snow,340,2013-01-13 08:49:00
1:53 AM,7.0,3.0,84,30.24,2.5,NNW,4.6,-,0.00,Snow,Light Snow,340,2013-01-13 08:53:00
2:53 AM,7.0,3.0,84,30.24,2.5,Calm,Calm,-,0.00,Snow,Light Snow,0,2013-01-13 09:53:00
3:41 AM,6.8,3.2,85,30.00,2.5,Calm,Calm,-,0.00,Snow,Light Snow,0,2013-01-13 10:41:00
3:53 AM,7.0,1.9,80,30.23,2.5,NNW,3.5,-,0.00,Snow,Light Snow,330,2013-01-13 10:53:00
4:11 AM,6.8,1.4,79,29.99,2.5,WNW,4.6,-,0.00,Snow,Light Snow,300,2013-01-13 11:11:00
4:18 AM,5.0,1.4,85,29.99,4.0,WNW,4.6,-,0.00,Snow,Light Snow,300,2013-01-13 11:18:00
4:27 AM,6.8,1.4,79,29.98,4.0,Calm,Calm,-,0.00,Snow,Light Snow,0,2013-01-13 11:27:00
4:48 AM,6.8,1.4,79,29.99,2.5,Calm,Calm,-,0.00,Snow,Light Snow,0,2013-01-13 11:48:00
5:01 AM,5.0,1.4,85,29.98,4.0,WNW,3.5,-,0.00,Snow,Light Snow,300,2013-01-13 12:01:00
5:25 AM,3.2,-0.4,85,29.99,4.0,WSW,3.5,-,0.00,Snow,Light Snow,240,2013-01-13 12:25:00
5:53 AM,3.0,-2.0,80,30.26,8.0,SSW,3.5,-,0.00,,Overcast,200,2013-01-13 12:53:00
6:11 AM,1.4,-2.2,85,30.00,5.0,SW,3.5,-,N/A,,Overcast,220,2013-01-13 13:11:00
6:53 AM,1.0,-5.1,75,30.27,10.0,SW,4.6,-,N/A,,Overcast,230,2013-01-13 13:53:00
7:53 AM,1.0,-5.1,75,30.29,10.0,WSW,6.9,-,N/A,,Overcast,240,2013-01-13 14:53:00
8:03 AM,1.4,-5.8,72,30.03,10.0,WSW,4.6,-,N/A,,Overcast,240,2013-01-13 15:03:00
8:53 AM,5.0,-2.9,70,30.29,10.0,Calm,Calm,-,N/A,,Overcast,0,2013-01-13 15:53:00
9:44 AM,8.6,1.4,73,30.04,10.0,NW,4.6,-,N/A,,Mostly Cloudy,310,2013-01-13 16:44:00
9:53 AM,8.1,1.0,73,30.29,10.0,NW,5.8,-,N/A,,Mostly Cloudy,310,2013-01-13 16:53:00
10:04 AM,8.6,1.4,73,30.04,10.0,North,4.6,-,N/A,,Mostly Cloudy,350,2013-01-13 17:04:00
10:19 AM,8.6,1.4,73,30.04,10.0,NW,6.9,-,N/A,,Scattered Clouds,310,2013-01-13 17:19:00
10:53 AM,10.0,-0.0,64,30.27,10.0,NW,5.8,-,N/A,,Clear,310,2013-01-13 17:53:00
11:53 AM,10.0,1.0,67,30.25,10.0,South,5.8,-,N/A,,Partly Cloudy,190,2013-01-13 18:53:00
12:53 PM,12.0,1.0,61,30.22,10.0,Variable,4.6,-,N/A,,Mostly Cloudy,0,2013-01-13 19:53:00
1:53 PM,10.9,1.9,67,30.24,10.0,Calm,Calm,-,N/A,,Scattered Clouds,0,2013-01-13 20:53:00
2:53 PM,12.0,1.9,64,30.25,10.0,North,8.1,-,N/A,,Mostly Cloudy,350,2013-01-13 21:53:00
3:53 PM,10.0,1.0,67,30.26,10.0,NNW,3.5,-,N/A,,Overcast,330,2013-01-13 22:53:00
4:53 PM,9.0,-0.0,67,30.27,10.0,South,4.6,-,N/A,,Overcast,180,2013-01-13 23:53:00
5:53 PM,7.0,-2.0,67,30.29,10.0,SSW,3.5,-,N/A,,Overcast,200,2013-01-14 00:53:00
6:53 PM,6.1,-2.9,67,30.29,10.0,South,3.5,-,N/A,,Partly Cloudy,180,2013-01-14 01:53:00
7:53 PM,1.0,-6.0,72,30.31,10.0,SW,4.6,-,N/A,,Clear,230,2013-01-14 02:53:00
8:53 PM,1.0,-7.1,69,30.29,10.0,WSW,8.1,-,N/A,,Clear,250,2013-01-14 03:53:00
9:53 PM,3.0,-7.1,63,30.27,10.0,WSW,6.9,-,N/A,,Scattered Clouds,240,2013-01-14 04:53:00
11:53 PM,6.1,-6.0,58,30.25,10.0,SW,8.1,-,N/A,,Overcast,230,2013-01-14 06:53:00